Santa Barbara, CA

10:35 AM PDT on July 22, 2017 (GMT -0700)
Santa Barbara Municipal

Weather History for KSBA - October, 2010

Change the Weather History Date:

Friday, October 8, 2010

  Actual Average Record
Temperature  
Mean Temperature 60 °F 63 °F  
Max Temperature 72 °F 73 °F 96 °F (1999)
Min Temperature 48 °F 53 °F 41 °F (2007)
Degree Days  
Heating Degree Days 5 3  
Month to date heating degree days 25 23  
Since 1 July heating degree days 305 118  
Cooling Degree Days 0 1  
Month to date cooling degree days 6 8  
Year to date cooling degree days 89 179  
Growing Degree Days 10 (Base 50)    
Moisture  
Dew Point 53 °F    
Average Humidity 71    
Maximum Humidity 93    
Minimum Humidity 49    
Precipitation  
Precipitation 0.01 in 0.02 in 0.07 in (1973)
Month to date precipitation 0.72 0.14  
Year to date precipitation 14.46 12.60  
Since 1 July precipitation 0.73  
Sea Level Pressure  
Sea Level Pressure 30.09 in    
Wind  
Wind Speed 3 mph (SW)    
Max Wind Speed 14 mph    
Max Gust Speed -    
Visibility 10 miles    
Events      
T = Trace of Precipitation, MM = Missing Value Source: NWS Daily Summary

Daily Weather History Graph

Daily Weather History Graph

Search for Another Location

Airport or City:

Trip Planner

Search our weather history database for the weather conditions in past years. The results will help you decide how hot, cold, wet, or windy it might be!

Date:

Astronomy

Oct. 08, 2010 Rise Set
Actual Time 6:59 AM PDT 6:33 PM PDT
Civil Twilight 6:34 AM PDT 6:59 PM PDT
Nautical Twilight 6:05 AM PDT 7:28 PM PDT
Astronomical Twilight 5:35 AM PDT 7:57 PM PDT
Moon 8:05 AM PDT (10/8) 6:59 PM PDT (10/8)
Length of Visible Light 12h 24m
Length of Day
11h 34m
New Moon, 1% of the Moon is Illuminated
Oct 8
New Moon
Oct 14
First Quarter
Oct 22
Full
Oct 30
Last Quarter
Nov 5
New

Hourly Weather History & Observations

Time (PDT) Temp. Dew Point Humidity Pressure Visibility Wind Dir Wind Speed Gust Speed Precip Events Conditions
12:53 AM 54.0 °F 48.9 °F 83% 30.10 in 10.0 mi Calm Calm - N/A   Clear
1:53 AM 50.0 °F 48.0 °F 93% 30.10 in 10.0 mi Calm Calm - N/A   Clear
2:53 AM 51.1 °F 48.0 °F 89% 30.10 in 10.0 mi Calm Calm - N/A   Clear
3:53 AM 50.0 °F 48.0 °F 93% 30.09 in 10.0 mi Calm Calm - N/A   Clear
4:53 AM 50.0 °F 46.9 °F 89% 30.09 in 10.0 mi Calm Calm - N/A   Clear
5:53 AM 51.1 °F 48.0 °F 89% 30.10 in 10.0 mi Calm Calm - N/A   Clear
6:53 AM 50.0 °F 46.9 °F 89% 30.11 in 10.0 mi Calm Calm - N/A   Clear
7:53 AM 52.0 °F 48.9 °F 89% 30.11 in 10.0 mi Calm Calm - N/A   Clear
8:53 AM 61.0 °F 54.0 °F 78% 30.12 in 10.0 mi Calm Calm - N/A   Clear
9:53 AM 63.0 °F 55.0 °F 75% 30.14 in 10.0 mi SSE 5.8 mph - 0.01 in   Clear
10:53 AM 64.0 °F 55.0 °F 73% 30.14 in 10.0 mi Variable 3.5 mph - N/A   Clear
11:53 AM 66.9 °F 54.0 °F 63% 30.13 in 10.0 mi SSW 4.6 mph - N/A   Clear
12:53 PM 70.0 °F 55.0 °F 59% 30.12 in 10.0 mi SSW 8.1 mph - N/A   Clear
1:53 PM 71.1 °F 51.1 °F 49% 30.09 in 10.0 mi WSW 8.1 mph - N/A   Clear
2:53 PM 69.1 °F 54.0 °F 58% 30.08 in 10.0 mi West 11.5 mph - N/A   Clear
3:53 PM 69.1 °F 52.0 °F 54% 30.07 in 10.0 mi West 11.5 mph - N/A   Clear
4:53 PM 69.1 °F 53.1 °F 57% 30.06 in 10.0 mi WSW 5.8 mph - N/A   Clear
5:53 PM 64.0 °F 57.9 °F 80% 30.05 in 10.0 mi SSE 5.8 mph - N/A   Clear
6:53 PM 62.1 °F 57.9 °F 86% 30.06 in 10.0 mi Calm Calm - N/A   Clear
7:53 PM 60.1 °F 57.0 °F 90% 30.06 in 9.0 mi Calm Calm - N/A   Clear
8:53 PM 60.1 °F 57.0 °F 90% 30.07 in 8.0 mi NW 4.6 mph - N/A   Clear
9:53 PM 60.1 °F 55.9 °F 86% 30.07 in 10.0 mi East 3.5 mph - N/A   Clear
10:53 PM 60.1 °F 57.0 °F 90% 30.08 in 10.0 mi Calm Calm - N/A   Clear
11:53 PM 57.9 °F 55.0 °F 90% 30.07 in 10.0 mi Calm Calm - N/A   Clear